sat.trackr.live / text

‹ back to catalog

STARLINK-34695

NORAD 64916 · 2025-157N

PAYLOAD ACTIVE UNKNOWN

§ Identity

Operator
Country
US
Launch date
2025-07-26
Launch site
AFETR
Launch vehicle
Mass (kg)
RCS (m²)

Purposes: comms

External: N2YO · Heavens-Above · Gunter

§ Orbital elements

Epoch: 2026-09-20T09:15:01.261728Z

Period
93.85 min
Inclination
53.1570°
Eccentricity
0.0000706
Mean motion
15.34408750 rev/d
Perigee alt
462.2 km
Apogee alt
463.2 km
Semi-major
6,840.8 km
B*
3.5176e-4
RAAN
150.6070°
Arg perigee
81.6608°
Mean anomaly
278.4474°
Rev number
6,608

§ Raw data

STARLINK-346951 64916U 25157N   26263.38543127  .00011530  00000+0  35176-3 0  99922 64916  53.1570 150.6070 0000706  81.6608 278.4474 15.34408750 66083

JSON: /api/v1/satellites/64916 · /tle

For live sub-satellite position, see the globe view (requires WebGL).

§ Visibility from observer

Set your observer location to see the next 7 days of passes ≥ 10°. The values pass through the URL so the page stays shareable.

No JS? Fill the form by hand. The geolocation button needs JavaScript.